Home > Weather > Jacksonville > Past weeks

Flag for USA Past Weather in Jacksonville, Florida, USA — Yesterday and Last 2 Weeks

Now
81 °F

Strong thunderstorms. Partly sunny.


Feels Like: 87 °F
Forecast: 75 / 94 °F
Wind: 8 mph from South

Location: Jacksonville Naval Air Station

Current Time: Jul 26, 2016 at 10:03:40 PM

Latest Report: Jul 26, 2016 at 8:53 PM


Visibility: 3 mi

Pressure: 30.04 "Hg

Humidity: 82%

Dew Point: 75 °F

Location of JacksonvilleLocation

Past Weather in Jacksonville — Graph

°F

Jacksonville Temperature Yesterday

Maximum temperature yesterday: 93 °F (at 3:53 PM)
Minimum temperature yesterday: 78 °F (at 3:53 AM)
Average temperature yesterday: 86 °F

High & Low Weather Summary for the Past Weeks

 TemperatureHumidityPressure
High96 °F (Jul 12, 2:53 PM)88% (Jul 13, 2:53 AM)30.25 "Hg (Jul 13, 2:53 AM)
Low75 °F (Jul 12, 11:53 PM)37% (Jul 24, 4:53 PM)29.96 "Hg (Jul 23, 5:53 PM)
Average86 °F64%30.09 "Hg
* Reported Jul 11 8:53 PM — Jul 26 8:53 PM, Jacksonville, Weather by CustomWeather, © 2016

Note: Actual official high and low records may vary slightly from our data, if they occured in-between our weather recording intervals... More about our weather records

Advertising

Jacksonville Weather History for the Previous 24 Hours

Scroll right to see more
 ConditionsComfort  
Time TempWeatherWind HumidityBarometerVisibility
8:53 PM
Tue, Jul 26
81 °FStrong thunderstorms. Partly sunny.8 mph82%30.04 "Hg3 mi
7:53 PM83 °FThunderstorms. Partly sunny.16 mph74%30.03 "Hg10 mi
6:53 PM92 °FBroken clouds.10 mph54%29.99 "Hg10 mi
5:53 PM95 °FBroken clouds.9 mph46%29.99 "Hg10 mi
4:53 PM95 °FBroken clouds.10 mph43%30.01 "Hg10 mi
3:53 PM95 °FBroken clouds.12 mph43%30.02 "Hg7 mi
2:53 PM95 °FBroken clouds.9 mph41%30.03 "Hg10 mi
1:53 PM95 °FScattered clouds.10 mph41%30.05 "Hg10 mi
12:53 PM93 °FScattered clouds.12 mph47%30.06 "Hg10 mi
11:53 AM91 °FPassing clouds.10 mph50%30.08 "Hg10 mi
10:53 AM89 °FPassing clouds.7 mph57%30.08 "Hg10 mi
9:53 AM86 °FPassing clouds.5 mph65%30.08 "Hg10 mi
8:53 AM84 °FPassing clouds.7 mph67%30.07 "Hg10 mi
7:53 AM82 °FScattered clouds.No wind72%30.06 "Hg8 mi
6:53 AM81 °FPassing clouds.5 mph74%30.06 "Hg10 mi
5:53 AM80 °FPassing clouds.5 mph74%30.05 "Hg10 mi
4:53 AM82 °FPassing clouds.6 mph70%30.03 "Hg10 mi
3:53 AM81 °FPassing clouds.3 mph72%30.04 "Hg10 mi
2:53 AM82 °FPassing clouds.3 mph70%30.05 "Hg10 mi
1:53 AM82 °FPassing clouds.No wind70%30.06 "Hg10 mi
12:53 AM81 °FPassing clouds.10 mph72%30.06 "Hg10 mi
11:53 PM
Mon, Jul 25
85 °FPassing clouds.8 mph63%30.06 "Hg10 mi
10:53 PM86 °FPassing clouds.12 mph63%30.06 "Hg10 mi
Weather by CustomWeather, © 2016

See weather overviewHow to use our weather pages